Location: Saint Louis
(38.6272°N, 90.1978°W)
Time: 00:07:10
(UTC-05:00)

ISS - Pass Details

Date: 12 February 2013
Orbit: 402 x 403 km, 51.6° (Epoch: 29 June)

Event Time Altitude Azimuth Distance (km) Brightness Sun altitude
Rises 18:27:33 0° 291° (WNW) 2,410 1.8 -10.7°
Reaches altitude 10° 18:30:59 10° 327° (NNW) 1,527 -0.1 -11.4°
Maximum altitude 18:32:10 11° 347° (NNW) 1,440 -0.5 -11.6°
Drops below altitude 10° 18:33:21 10° 7° (N) 1,517 -0.6 -11.8°
Enters shadow 18:34:44 - 26° (NNE) 1,784 -0.4 -12.1°
